[keps] orb07074.amsat
Ray Hoad
r.hoad at att.net
Thu Mar 15 19:32:47 PST 2007
SB KEPS @ AMSAT $ORB07074.O
Orbital Elements 07074.OSCAR
HR AMSAT ORBITAL ELEMENTS FOR OSCAR SATELLITES
FROM WA5QGD FORT WORTH,TX March 15, 2007
Send SUBSCRIBE KEPS/UNSUBSCRIBE KEPS to majordomo at amsat.org only
BID: ORB07074.O
TO ALL RADIO AMATEURS BT
Satellite: AO-07
Catalog number: 07530
Epoch time: 07073.73049291
Element set: 0829
Inclination: 101.5291 deg
RA of node: 114.4781 deg
Eccentricity: 0.0012152
Arg of perigee: 080.7313 deg
Mean anomaly: 279.5126 deg
Mean motion: 12.53572642 rev/day
Decay rate: -2.8e-07 rev/day^2
Epoch rev: 47928
Checksum: 292
Satellite: AO-10
Catalog number: 14129
Epoch time: 07072.85808456
Element set: 0368
Inclination: 026.8191 deg
RA of node: 287.1349 deg
Eccentricity: 0.6053936
Arg of perigee: 005.4374 deg
Mean anomaly: 359.0510 deg
Mean motion: 02.05870768 rev/day
Decay rate: -9.0e-07 rev/day^2
Epoch rev: 17860
Checksum: 320
Satellite: UO-11
Catalog number: 14781
Epoch time: 07073.57743758
Element set: 0324
Inclination: 098.1982 deg
RA of node: 094.4187 deg
Eccentricity: 0.0009918
Arg of perigee: 112.1303 deg
Mean anomaly: 248.0935 deg
Mean motion: 14.79531019 rev/day
Decay rate: 2.21e-06 rev/day^2
Epoch rev: 23574
Checksum: 310
Satellite: RS-10/11
Catalog number: 18129
Epoch time: 07074.68467332
Element set: 246
Inclination: 082.9274 deg
RA of node: 127.3590 deg
Eccentricity: 0.0013461
Arg of perigee: 061.2049 deg
Mean anomaly: 299.0456 deg
Mean motion: 13.72785199 rev/day
Decay rate: 2.3e-07 rev/day^2
Epoch rev: 98840
Checksum: 321
Satellite: RS-15
Catalog number: 23439
Epoch time: 07073.70336037
Element set: 0055
Inclination: 064.8185 deg
RA of node: 159.7204 deg
Eccentricity: 0.0162324
Arg of perigee: 207.4090 deg
Mean anomaly: 151.8199 deg
Mean motion: 11.27551744 rev/day
Decay rate: -3.9e-07 rev/day^2
Epoch rev: 50304
Checksum: 290
Satellite: FO-29
Catalog number: 24278
Epoch time: 07073.91322154
Element set: 0456
Inclination: 098.5384 deg
RA of node: 046.2626 deg
Eccentricity: 0.0350729
Arg of perigee: 327.7818 deg
Mean anomaly: 030.2317 deg
Mean motion: 13.52928043 rev/day
Decay rate: -5.6e-07 rev/day^2
Epoch rev: 52215
Checksum: 309
Satellite: SO-33
Catalog number: 25509
Epoch time: 07073.54821390
Element set: 0885
Inclination: 031.4348 deg
RA of node: 040.8087 deg
Eccentricity: 0.0355371
Arg of perigee: 319.9884 deg
Mean anomaly: 037.5047 deg
Mean motion: 14.28151292 rev/day
Decay rate: 1.95e-06 rev/day^2
Epoch rev: 43771
Checksum: 321
Satellite: AO-40
Catalog number: 26609
Epoch time: 07071.20371223
Element set: 849
Inclination: 004.8674 deg
RA of node: 166.4482 deg
Eccentricity: 0.7994392
Arg of perigee: 286.3851 deg
Mean anomaly: 006.6438 deg
Mean motion: 01.25587116 rev/day
Decay rate: 8.3e-07 rev/day^2
Epoch rev: 2922
Checksum: 319
Satellite: VO-52
Catalog number: 28650
Epoch time: 07074.62078156
Element set: 579
Inclination: 097.8383 deg
RA of node: 147.4037 deg
Eccentricity: 0.0026903
Arg of perigee: 196.0201 deg
Mean anomaly: 164.0217 deg
Mean motion: 14.81277866 rev/day
Decay rate: 4.3e-07 rev/day^2
Epoch rev: 10056
Checksum: 306
Satellite: PO-63
Catalog number: 29712
Epoch time: 07074.65285894
Element set: 190
Inclination: 097.9316 deg
RA of node: 135.0767 deg
Eccentricity: 0.0015518
Arg of perigee: 074.4110 deg
Mean anomaly: 285.8814 deg
Mean motion: 14.79589063 rev/day
Decay rate: 6.09e-06 rev/day^2
Epoch rev: 950
Checksum: 333
/EX
SB KEPS @ AMSAT $ORB07074.D
Orbital Elements 07074.MICROS
HR AMSAT ORBITAL ELEMENTS FOR THE MICROSATS
FROM WA5QGD FORT WORTH,TX March 15, 2007
Send SUBSCRIBE KEPS/UNSUBSCRIBE KEPS to majordomo at amsat.org only
BID: ORB07074.D
TO ALL RADIO AMATEURS BT
Satellite: AO-16
Catalog number: 20439
Epoch time: 07074.51515004
Element set: 988
Inclination: 098.1947 deg
RA of node: 074.2458 deg
Eccentricity: 0.0011763
Arg of perigee: 103.2186 deg
Mean anomaly: 257.0319 deg
Mean motion: 14.31752841 rev/day
Decay rate: .00000000 rev/day^2
Epoch rev: 89514
Checksum: 289
Satellite: LO-19
Catalog number: 20442
Epoch time: 07074.56932973
Element set: 915
Inclination: 098.1829 deg
RA of node: 083.7568 deg
Eccentricity: 0.0012826
Arg of perigee: 102.8943 deg
Mean anomaly: 257.3664 deg
Mean motion: 14.31993870 rev/day
Decay rate: -1.0e-07 rev/day^2
Epoch rev: 89529
Checksum: 343
Satellite: AO-27
Catalog number: 22825
Epoch time: 07074.45588293
Element set: 638
Inclination: 098.3198 deg
RA of node: 048.4716 deg
Eccentricity: 0.0008130
Arg of perigee: 173.1450 deg
Mean anomaly: 186.9853 deg
Mean motion: 14.29202112 rev/day
Decay rate: 3.0e-07 rev/day^2
Epoch rev: 70210
Checksum: 296
Satellite: IO-26
Catalog number: 22826
Epoch time: 07073.46935533
Element set: 0335
Inclination: 098.3143 deg
RA of node: 048.6409 deg
Eccentricity: 0.0008709
Arg of perigee: 174.0776 deg
Mean anomaly: 186.0520 deg
Mean motion: 14.29447282 rev/day
Decay rate: -4.0e-08 rev/day^2
Epoch rev: 70204
Checksum: 304
Satellite: PO-28
Catalog number: 22829
Epoch time: 07073.47164814
Element set: 0614
Inclination: 098.3023 deg
RA of node: 049.8221 deg
Eccentricity: 0.0009941
Arg of perigee: 148.0539 deg
Mean anomaly: 212.1254 deg
Mean motion: 14.30146322 rev/day
Decay rate: 2.8e-07 rev/day^2
Epoch rev: 70227
Checksum: 282
Satellite: GO-32
Catalog number: 25397
Epoch time: 07073.66620212
Element set: 253
Inclination: 098.4274 deg
RA of node: 124.9624 deg
Eccentricity: 0.0001763
Arg of perigee: 120.5171 deg
Mean anomaly: 239.6189 deg
Mean motion: 14.23122161 rev/day
Decay rate: 1.01e-06 rev/day^2
Epoch rev: 45071
Checksum: 269
Satellite: MO-46
Catalog number: 26548
Epoch time: 07074.59314640
Element set: 746
Inclination: 064.5564 deg
RA of node: 112.2090 deg
Eccentricity: 0.0026515
Arg of perigee: 209.5813 deg
Mean anomaly: 150.3806 deg
Mean motion: 14.83110807 rev/day
Decay rate: 1.29e-06 rev/day^2
Epoch rev: 34965
Checksum: 299
Satellite: NO-44
Catalog number: 26931
Epoch time: 07073.07416748
Element set: 0543
Inclination: 067.0537 deg
RA of node: 032.4934 deg
Eccentricity: 0.0006446
Arg of perigee: 278.6645 deg
Mean anomaly: 081.3698 deg
Mean motion: 14.29474755 rev/day
Decay rate: -2.44e-06 rev/day^2
Epoch rev: 28450
Checksum: 329
Satellite: SO-50
Catalog number: 27607
Epoch time: 07073.36908151
Element set: 0265
Inclination: 064.5598 deg
RA of node: 012.9057 deg
Eccentricity: 0.0043351
Arg of perigee: 029.6968 deg
Mean anomaly: 330.6602 deg
Mean motion: 14.71236843 rev/day
Decay rate: 9.4e-07 rev/day^2
Epoch rev: 22717
Checksum: 309
Satellite: CO-55
Catalog number: 27844
Epoch time: 07073.57779209
Element set: 982
Inclination: 098.7212 deg
RA of node: 083.1642 deg
Eccentricity: 0.0010312
Arg of perigee: 009.2415 deg
Mean anomaly: 350.8957 deg
Mean motion: 14.20496984 rev/day
Decay rate: 4.6e-07 rev/day^2
Epoch rev: 19204
Checksum: 319
Satellite: CO-57
Catalog number: 27848
Epoch time: 07073.58635777
Element set: 944
Inclination: 098.7206 deg
RA of node: 082.4030 deg
Eccentricity: 0.0010081
Arg of perigee: 012.4008 deg
Mean anomaly: 347.7411 deg
Mean motion: 14.20317833 rev/day
Decay rate: 1.8e-07 rev/day^2
Epoch rev: 19202
Checksum: 290
Satellite: AO-51
Catalog number: 28375
Epoch time: 07074.59199730
Element set: 770
Inclination: 098.1265 deg
RA of node: 118.6821 deg
Eccentricity: 0.0084658
Arg of perigee: 105.5255 deg
Mean anomaly: 255.5295 deg
Mean motion: 14.40558605 rev/day
Decay rate: 1.6e-07 rev/day^2
Epoch rev: 14223
Checksum: 319
Satellite: CO-56
Catalog number: 28941
Epoch time: 07074.70163114
Element set: 378
Inclination: 098.1416 deg
RA of node: 125.6104 deg
Eccentricity: 0.0239601
Arg of perigee: 243.0757 deg
Mean anomaly: 114.5808 deg
Mean motion: 15.35756583 rev/day
Decay rate: 1.6366e-04 rev/day^2
Epoch rev: 5906
Checksum: 316
Satellite: HO-59
Catalog number: 29484
Epoch time: 07073.83659419
Element set: 229
Inclination: 098.3001 deg
RA of node: 109.7598 deg
Eccentricity: 0.0234121
Arg of perigee: 242.3454 deg
Mean anomaly: 115.4062 deg
Mean motion: 15.43570649 rev/day
Decay rate: 2.8020e-04 rev/day^2
Epoch rev: 2648
Checksum: 316
Satellite: NO-60
Catalog number: 29661
Epoch time: 07073.72284727
Element set: 103
Inclination: 051.6393 deg
RA of node: 226.2940 deg
Eccentricity: 0.0011083
Arg of perigee: 330.8066 deg
Mean anomaly: 029.2347 deg
Mean motion: 15.92089418 rev/day
Decay rate: 9.5325e-04 rev/day^2
Epoch rev: 1329
Checksum: 302
Satellite: NO-61
Catalog number: 29664
Epoch time: 07074.76448381
Element set: 84
Inclination: 051.6334 deg
RA of node: 222.7174 deg
Eccentricity: 0.0014435
Arg of perigee: 337.2383 deg
Mean anomaly: 022.7969 deg
Mean motion: 15.85829036 rev/day
Decay rate: 2.9631e-04 rev/day^2
Epoch rev: 1330
Checksum: 316
/EX
SB KEPS @ AMSAT $ORB07074.W
Orbital Elements 07074.WEATHER
HR AMSAT ORBITAL ELEMENTS FOR WEATHER SATELLITES
FROM WA5QGD FORT WORTH,TX March 15, 2007
Send SUBSCRIBE KEPS/UNSUBSCRIBE KEPS to majordomo at amsat.org only
BID: ORB07074.W
TO ALL RADIO AMATEURS BT
Satellite: NOAA-10
Catalog number: 16969
Epoch time: 07073.66687511
Element set: 0586
Inclination: 098.7526 deg
RA of node: 090.7656 deg
Eccentricity: 0.0013284
Arg of perigee: 082.8284 deg
Mean anomaly: 277.4412 deg
Mean motion: 14.27319073 rev/day
Decay rate: -6.5e-07 rev/day^2
Epoch rev: 06574
Checksum: 337
Satellite: NOAA-11
Catalog number: 19531
Epoch time: 07073.29767320
Element set: 0584
Inclination: 098.8098 deg
RA of node: 163.6466 deg
Eccentricity: 0.0010963
Arg of perigee: 302.9051 deg
Mean anomaly: 057.1094 deg
Mean motion: 14.14838965 rev/day
Decay rate: 2.32e-06 rev/day^2
Epoch rev: 95273
Checksum: 322
Satellite: NOAA-12
Catalog number: 21263
Epoch time: 07073.54774976
Element set: 0076
Inclination: 098.7514 deg
RA of node: 070.9562 deg
Eccentricity: 0.0013083
Arg of perigee: 025.8162 deg
Mean anomaly: 334.3664 deg
Mean motion: 14.25523346 rev/day
Decay rate: -1.73e-06 rev/day^2
Epoch rev: 82276
Checksum: 309
